Tracking 19903 objects as of 16-Oct-2019
HD Live streaming from Space Station
objects crossing your sky now

SL-16 DEB

Track SL-16 DEB now!
10-day predictions


NORAD ID: 39877
Int'l Code: 1993-016BB
Perigee: 743.6 km
Apogee: 952.0 km
Inclination: 71.0 °
Period: 101.7 minutes
Semi major axis: 7218 km
RCS: 0.006 m2 (small)
Launch date: March 26, 1993
Source: Commonwealth of Independent States (former USSR) (CIS)
Launch site: TYURATAM MISSILE AND SPACE COMPLEX (TTMTR)

Note: This is SATELLITE DEBRIS
aabbcc
Your satellite tracking list
Your tracking list is empty




NASA's NSSDC Master Catalog

Two Line Element Set (TLE):
1 39877U 93016BB  19287.05117476 +.00001839 +00000-0 +87271-3 0  9990
2 39877 070.9868 164.4804 0144331 004.9325 355.3179 14.15487652278744
Source of the keplerian elements: AFSPC